TimeCDT,TemperatureF,Dew PointF,Humidity,Sea Level PressureIn,VisibilityMPH,Wind Direction,Wind SpeedMPH,Gust SpeedMPH,PrecipitationIn,Events,Conditions,WindDirDegrees,DateUTC
12:15 AM,66.9,40.3,38,29.90,10.0,SE,18.4,-,N/A,,Clear,140,2013-05-23 05:15:00
12:35 AM,66.2,41.0,40,29.91,10.0,SE,17.3,24.2,N/A,,Clear,130,2013-05-23 05:35:00
12:55 AM,64.9,41.2,42,29.91,10.0,SE,16.1,-,N/A,,Clear,130,2013-05-23 05:55:00
1:15 AM,64.4,41.4,43,29.90,10.0,SE,19.6,-,N/A,,Clear,140,2013-05-23 06:15:00
1:35 AM,63.7,41.5,44,29.90,10.0,SE,16.1,-,N/A,,Clear,140,2013-05-23 06:35:00
1:55 AM,63.3,41.9,46,29.90,10.0,SE,18.4,24.2,N/A,,Clear,140,2013-05-23 06:55:00
2:15 AM,62.6,42.8,48,29.89,10.0,SE,19.6,24.2,N/A,,Clear,140,2013-05-23 07:15:00
2:35 AM,62.6,43.3,49,29.89,10.0,SE,18.4,24.2,N/A,,Clear,140,2013-05-23 07:35:00
2:55 AM,62.2,44.2,52,29.89,10.0,SE,20.7,27.6,N/A,,Clear,140,2013-05-23 07:55:00
3:15 AM,62.1,45.0,53,29.89,10.0,SE,20.7,26.5,N/A,,Clear,140,2013-05-23 08:15:00
3:35 AM,61.7,45.7,56,29.89,10.0,SE,19.6,-,N/A,,Clear,140,2013-05-23 08:35:00
3:55 AM,61.0,46.4,59,29.90,10.0,SE,17.3,24.2,N/A,,Clear,130,2013-05-23 08:55:00
4:15 AM,60.1,46.9,62,29.91,10.0,SE,16.1,-,N/A,,Clear,130,2013-05-23 09:15:00
4:35 AM,59.9,47.5,64,29.91,10.0,SE,17.3,21.9,N/A,,Clear,130,2013-05-23 09:35:00
4:55 AM,59.2,48.2,67,29.91,10.0,SE,17.3,-,N/A,,Clear,130,2013-05-23 09:55:00
5:15 AM,58.5,48.6,70,29.92,10.0,SE,17.3,-,N/A,,Clear,140,2013-05-23 10:15:00
5:35 AM,57.7,49.1,73,29.92,10.0,SE,15.0,-,N/A,,Clear,130,2013-05-23 10:35:00
5:55 AM,57.4,49.5,75,29.93,10.0,SE,15.0,-,N/A,,Clear,130,2013-05-23 10:55:00
6:15 AM,57.2,50.0,77,29.93,10.0,SE,17.3,-,N/A,,Clear,140,2013-05-23 11:15:00
6:35 AM,56.8,50.2,78,29.93,10.0,SE,18.4,-,N/A,,Clear,140,2013-05-23 11:35:00
6:55 AM,56.5,50.4,80,29.94,10.0,SE,13.8,-,N/A,,Clear,140,2013-05-23 11:55:00
7:15 AM,56.7,50.9,81,29.95,10.0,SE,13.8,-,N/A,,Clear,130,2013-05-23 12:15:00
7:35 AM,57.4,51.4,81,29.96,10.0,SE,15.0,-,N/A,,Clear,130,2013-05-23 12:35:00
7:55 AM,59.0,52.3,79,29.97,10.0,ESE,17.3,-,N/A,,Clear,120,2013-05-23 12:55:00
8:15 AM,60.1,53.2,78,29.98,10.0,SE,15.0,20.7,N/A,,Clear,130,2013-05-23 13:15:00
8:35 AM,61.7,54.0,76,30.00,10.0,ESE,12.7,-,N/A,,Clear,120,2013-05-23 13:35:00
8:55 AM,63.1,54.3,73,30.01,10.0,ESE,10.4,-,N/A,,Clear,110,2013-05-23 13:55:00
9:15 AM,64.8,54.9,70,30.01,10.0,ESE,10.4,-,N/A,,Clear,120,2013-05-23 14:15:00
9:35 AM,66.9,55.4,66,30.02,10.0,East,11.5,-,N/A,,Clear,100,2013-05-23 14:35:00
9:55 AM,68.9,56.1,64,30.03,10.0,East,11.5,-,N/A,,Clear,90,2013-05-23 14:55:00
10:15 AM,70.0,56.3,62,30.03,10.0,ESE,12.7,-,N/A,,Clear,110,2013-05-23 15:15:00
10:35 AM,71.6,56.8,60,30.03,10.0,East,12.7,-,N/A,,Scattered Clouds,90,2013-05-23 15:35:00
10:55 AM,71.6,57.2,60,30.05,10.0,East,10.4,-,N/A,,Scattered Clouds,90,2013-05-23 15:55:00
11:15 AM,72.7,57.6,59,30.05,10.0,ESE,11.5,-,N/A,,Mostly Cloudy,110,2013-05-23 16:15:00
11:35 AM,72.3,57.7,60,30.05,10.0,ESE,12.7,16.1,N/A,,Mostly Cloudy,120,2013-05-23 16:35:00
11:55 AM,73.4,58.1,59,30.05,10.0,ESE,15.0,-,N/A,,Mostly Cloudy,120,2013-05-23 16:55:00
12:15 PM,75.4,58.3,55,30.05,10.0,ESE,13.8,19.6,N/A,,Overcast,110,2013-05-23 17:15:00
12:35 PM,75.2,58.6,56,30.05,10.0,ESE,13.8,19.6,N/A,,Mostly Cloudy,120,2013-05-23 17:35:00
12:55 PM,77.7,58.6,52,30.05,10.0,SE,15.0,23.0,N/A,,Mostly Cloudy,130,2013-05-23 17:55:00
1:15 PM,73.0,60.1,64,30.05,10.0,ESE,20.7,29.9,N/A,,Overcast,120,2013-05-23 18:15:00
1:35 PM,76.1,60.4,58,30.05,10.0,ESE,19.6,27.6,N/A,,Mostly Cloudy,120,2013-05-23 18:35:00
1:55 PM,73.6,60.8,64,30.06,7.0,ESE,18.4,27.6,N/A,,Overcast,110,2013-05-23 18:55:00
2:15 PM,73.9,61.2,64,30.06,7.0,ESE,19.6,24.2,N/A,,Overcast,110,2013-05-23 19:15:00
2:35 PM,75.4,61.3,62,30.06,7.0,SE,19.6,24.2,N/A,,Overcast,130,2013-05-23 19:35:00
2:55 PM,75.9,63.0,64,30.05,7.0,ESE,21.9,27.6,N/A,,Overcast,120,2013-05-23 19:55:00
3:15 PM,75.4,62.8,65,30.04,7.0,East,20.7,25.3,N/A,,Overcast,100,2013-05-23 20:15:00
3:35 PM,77.0,62.2,60,30.03,7.0,ESE,19.6,26.5,N/A,,Mostly Cloudy,120,2013-05-23 20:35:00
3:55 PM,74.7,61.3,63,30.05,7.0,ESE,18.4,-,N/A,,Overcast,120,2013-05-23 20:55:00
4:15 PM,75.4,60.8,60,30.03,7.0,SE,20.7,-,N/A,,Overcast,140,2013-05-23 21:15:00
4:35 PM,79.0,60.3,53,30.03,10.0,SE,23.0,28.8,N/A,,Scattered Clouds,130,2013-05-23 21:35:00
4:55 PM,78.8,59.5,52,30.00,10.0,SE,23.0,31.1,N/A,,Scattered Clouds,130,2013-05-23 21:55:00
5:15 PM,77.7,57.6,50,30.00,10.0,ESE,24.2,31.1,N/A,,Clear,120,2013-05-23 22:15:00
5:35 PM,76.6,58.8,54,30.00,10.0,SE,23.0,29.9,N/A,,Scattered Clouds,130,2013-05-23 22:35:00
5:55 PM,75.4,58.3,55,30.01,7.0,ESE,23.0,31.1,N/A,,Scattered Clouds,120,2013-05-23 22:55:00
6:15 PM,72.5,56.8,58,30.00,10.0,East,21.9,31.1,N/A,,Scattered Clouds,100,2013-05-23 23:15:00
6:35 PM,70.3,56.8,62,29.99,10.0,East,18.4,-,N/A,,Clear,100,2013-05-23 23:35:00
6:55 PM,70.3,56.3,61,29.99,10.0,East,19.6,27.6,N/A,,Clear,100,2013-05-23 23:55:00
7:15 PM,69.8,57.4,65,29.98,10.0,East,20.7,-,N/A,,Clear,80,2013-05-24 00:15:00
7:35 PM,70.7,57.2,62,29.99,10.0,East,23.0,28.8,N/A,,Clear,100,2013-05-24 00:35:00
7:55 PM,69.3,57.7,67,30.00,10.0,East,21.9,28.8,N/A,,Clear,100,2013-05-24 00:55:00
8:15 PM,68.4,57.6,68,30.01,10.0,ESE,21.9,27.6,N/A,,Clear,110,2013-05-24 01:15:00
8:35 PM,68.0,57.9,70,30.01,10.0,ESE,21.9,27.6,N/A,,Mostly Cloudy,110,2013-05-24 01:35:00
8:55 PM,68.0,58.3,71,30.02,10.0,ESE,24.2,29.9,N/A,,Mostly Cloudy,120,2013-05-24 01:55:00
9:15 PM,68.9,59.0,71,30.03,10.0,SE,27.6,34.5,N/A,,Scattered Clouds,130,2013-05-24 02:15:00
9:35 PM,68.4,59.5,73,30.03,10.0,SE,27.6,33.4,N/A,,Scattered Clouds,130,2013-05-24 02:35:00
9:55 PM,68.5,59.5,73,30.04,10.0,SE,25.3,31.1,N/A,,Mostly Cloudy,130,2013-05-24 02:55:00
10:15 PM,68.4,59.4,73,30.06,10.0,SE,27.6,32.2,N/A,,Overcast,130,2013-05-24 03:15:00
10:35 PM,66.7,58.5,75,30.09,10.0,SE,20.7,26.5,N/A,,Overcast,130,2013-05-24 03:35:00
10:55 PM,66.4,58.8,77,30.11,10.0,SE,16.1,26.5,N/A,,Overcast,130,2013-05-24 03:55:00
11:15 PM,65.5,58.6,79,30.12,10.0,SE,16.1,-,N/A,,Overcast,130,2013-05-24 04:15:00
11:35 PM,64.9,59.0,81,30.11,10.0,ESE,13.8,-,N/A,,Overcast,120,2013-05-24 04:35:00
11:55 PM,64.4,59.0,83,30.11,10.0,ESE,16.1,-,N/A,,Overcast,120,2013-05-24 04:55:00